www.pogodaiklimat.ru

Погода и климат >> Архив погоды >> Катар >> Духан


ПОГОДА в Духане

  • Прогноз погоды в Духане
  • Монитор погоды в Духане

АРХИВ ПОГОДЫ в Духане

Время (UTC), дата Ветер
(напр.,м/с)
 
Видим.   Явления Облачность Т
(С)
Тd
(С)
f
(%)
Тe
(С)
Тes
(С)
Комфортность P
(гПа)
Po
(гПа)
Тmin
(С)
Tmax
(С)
R
(мм)
R24
(мм)
S
(см)
21 17.05 В 9 20 км н/о +30.4 +17.2 45 +34 +34 очень
душно
1005.1 1004.9
00 18.05 ЮВ 13 20 км н/о +30.3 +12.5 34 +31 +31 жарко 1004.3 1004.1 0.5
06 19.05 В 18 20 км н/о +31.3 +14.1 35 +33 +33 жарко 1008.0 1007.8 +26.2
09 19.05 В 14 20 км н/о +34.8 +11.6 25 +35 +35 очень
жарко
1007.6 1007.4
12 19.05 В 7 20 км н/о +35.4 +13.2 26 +36 +36 очень
жарко
1005.7 1005.5 0.1
15 19.05 В 8 20 км н/о +32.7 +12.2 29 +33 +33 жарко 1005.2 1005.0
18 19.05 СВ 6 20 км н/о +29.4 +15.6 43 +32 +32 душно 1007.1 1006.9 +36.1
21 19.05 СВ 4 20 км н/о +27.8 +14.3 44 +30 +30 жарко 1007.3 1007.1
00 20.05 В 4 20 км н/о +26.2 +16.2 54 +30 +30 душно 1006.4 1006.2
03 20.05 СЗ 7 20 км н/о +27.2 +22.0 73 +35 +35 очень
душно
1007.7 1007.5
06 20.05 С 7 20 км н/о +28.8 +22.4 68 +38 +38 очень
душно
1009.1 1008.9 +26.2
09 20.05 С 11 20 км н/о +30.3 +22.9 65 +40 +40 очень
душно
1008.5 1008.3
12 20.05 С 12 20 км н/о +33.8 +17.3 37 +37 +37 очень
душно
1006.6 1006.4
15 20.05 СЗ 8 12 км н/о +29.4 +25.4 79 +43 +43 опасность
перегрева
1006.1 1005.9
18 20.05 С 5 11 км н/о +28.8 +25.2 81 +42 +42 опасность
перегрева
1008.2 1008.0 +34.7
21 20.05 С 3 2000 м н/о +28.5 +22.0 68 +37 +37 очень
душно
1009.2 1009.0
00 21.05 Ю 5 4000 м н/о +29.1 +15.2 43 +32 +32 душно 1007.6 1007.4
03 21.05 Ю 4 4000 м н/о +28.8 +16.6 48 +32 +32 душно 1009.0 1008.8
06 21.05 СЗ 9 4000 м н/о +29.2 +22.1 66 +38 +38 очень
душно
1011.2 1011.0 +27.2
09 21.05 СЗ 7 н/о н/о +29.7 +23.4 69 +40 +40 очень
душно
1010.5 1010.3
12 21.05 СЗ 5 7000 м н/о +30.9 +23.2 64 +41 +41 опасность
перегрева
1009.2 1009.0
15 21.05 С 4 11 км н/о +32.2 +19.5 47 +38 +38 очень
душно
1008.8 1008.6
18 21.05 ЮВ 8 18 км н/о +31.2 +15.9 40 +34 +34 душно 1009.9 1009.7 +32.6
21 21.05 Ю 4 15 км н/о +29.0 +21.3 63 +37 +37 очень
душно
1009.9 1009.7
00 22.05 ЮЗ 3 14 км н/о +27.4 +22.9 76 +36 +36 очень
душно
1009.4 1009.2
06 23.05 ЮЗ 3 20 км н/о +31.4 +19.3 49 +37 +37 очень
душно
1009.6 1009.4 +25.0
09 23.05 С 8 20 км н/о +34.6 +21.0 45 +42 +42 опасность
перегрева
1008.2 1008.0
12 23.05 С 10 20 км н/о +37.9 +10.5 19 +37 +37 очень
жарко
1006.3 1006.1
15 23.05 СВ 6 20 км н/о +38.5 +5.0 13 +36 +36 очень
жарко
1005.5 1005.3
18 23.05 В 6 20 км н/о +30.6 +15.3 40 +33 +33 душно 1007.8 1007.6 +40.1
21 23.05 Ю 4 20 км н/о +28.8 +20.8 62 +36 +36 очень
душно
1007.7 1007.5
00 24.05 ЮЗ 3 15 км н/о +25.5 +20.1 72 +31 +31 очень
душно
1006.9 1006.7

 

Местоположение метеостанции Духан (Катар): широта 25.40 долгота 50.75 высота над уровнем моря 5 м.

В архиве по умолчанию представлена погода в Духане за последнюю неделю. Архивные данные за месяц целиком и за предыдущие месяцы, начиная с января 2011 года, Вы можете получить, выбрав интересующий диапазон дат из раскрывающегося списка и нажав кнопку "Ввод!".


*Определитесь, кто Вы:
робот инопланетянин человек

Внимание! Время в таблицах - всемирное. Для получения местного времени необходимо прибавить поправку, которая равна 4 ч.

Смотрите также архив погоды в соседних городах и на ближайших метеорологических станциях:

Погода в Абу Самба (Катар) (73 км)
Погода в Дохе (Катар) (84 км)
Погода в Аэропорту Хамад (Катар) (88 км)
Погода в Доха порту (Катар) (91 км)
Погода в Бахрейне (Бахрейн) (97 км)
Погода в Дахране (Саудовская Аравия) (113 км)
Погода в Эль-Хуфуфе (Саудовская Аравия) (128 км)
Погода в Эд-Даммаме (Саудовская Аравия) (149 км)
Погода в Бендер-Дейере (Иран) (295 км)
Погода на Острове Киш (Иран) (345 км)

Пояснения к столбцам:

Ветер - указаны скорость ветра в м/с - средняя за 10 мин, порывы в срок и между сроками (в фигурных скобках) и направление, откуда дует ветер: С - северный, СВ - северо-восточный, В - восточный, ЮВ - юго-восточный, Ю - южный, ЮЗ - юго-западный, З - западный, СЗ - северо-западный.
Видимость - горизонтальная дальность видимости в метрах или километрах. При видимости от 1 до 10 км при отсутствии осадков обычно наблюдается дымка, при ухудшении видимости до 1 км и менее - туман. В сухую погоду видимость может ухудшаться дымом, пылью или мглою.
Явления - указаны атмосферные явления, наблюдавшиеся в срок или в последний час перед сроком; фигурными скобками обозначены явления, наблюдавшиеся между сроками (за 1-3 часа до срока); квадратными скобками обозначены град или гололедные отложения с указанием их диаметра в мм.
Облачность - указаны через наклонную черту общая и нижняя облачность в баллах и высота нижней границы облаков в метрах; квадратными скобками обозначены формы облаков: Ci - перистые, Cs - перисто-слоистые, Cc - перисто-кучевые, Ac - высококучевые, As - высокослоистые, Sc - слоисто-кучевые, Ns - слоисто-дождевые, Cu - кучевые, Cb - кучево-дождевые. Подробнее классификацию облаков см. в Атласе облаков (PDF).
T - Температура воздуха - температура, измеренная на высоте 2 м над землей.
Td - Температура точки росы - температура, при понижении до которой содержащийся в воздухе водяной пар достигнет насыщения.
f - Относительная влажность воздуха - влажноcть воздуха, измеренная на высоте 2 м над землей.
Te - Эффективная температура - температура, которую ощущает одетый по сезону человек в тени. Характеристика душности погоды. При расчете учитывается влияние влажности воздуха и скорости ветра на теплоощущения человека.
Tes - Эффективная температура на солнце - температура, которую ощущает человек, с поправкой на солнечный нагрев. Характеристика знойности погоды. Зависит от высоты солнца над горизонтом, облачности и скорости ветра. Ночью, в пасмурную погоду, а также при ветре 12 м/с и более поправка равна нулю.
P - Атмосферное давление - приведенное к уровню моря атмосферное давление.
Po - Атмосферное давление - измеренное на уровне метеостанции атмосферное давление.
Tmin - Минимальная температура - минимум температуры воздуха на высоте 2 м над землей.
Tmax - Максимальная температура - максимум температуры воздуха на высоте 2 м над землей.
R - Количество осадков - Количество выпавших осадков за период времени, мм. При наведении курсора мыши на число - период времени, за который выпало указанное количество осадков.
R24 - Количество осадков - Количество выпавших осадков за 24 часа, мм.
S - Снежный покров - Высота снежного покрова, см. При наведении курсора мыши на число - состояние снежного покрова и степень покрытия местности в баллах.